Back to catalog

COSMOS 1275 DEB

AlivePO
NORAD 42134·DEBRIS·🇷🇺 Russia

Launched Jun 4, 1981 from Plesetsk Cosmodrome

Loading…

Next Passes (next 24 hours)

TLE

FreshSource: Space-Track

Epoch: Sep 13, 2026, 10:26 UTC

1 42134U 81053QW  26256.43491966  .00000341  00000-0  41823-3 0  9993
2 42134  83.0084 155.4855 0178559 359.2240   0.8601 13.56540614587495

Track COSMOS 1275 DEB in real time with AllMySat

Download on the App Store